TimeEST,TemperatureF,Dew PointF,Humidity,Sea Level PressureIn,VisibilityMPH,Wind Direction,Wind SpeedMPH,Gust SpeedMPH,PrecipitationIn,Events,Conditions,WindDirDegrees,DateUTC
12:53 AM,66.9,62.1,84,30.23,10.0,East,10.4,-,N/A,,Clear,90,2012-12-04 05:53:00
1:53 AM,66.0,61.0,84,30.23,10.0,East,10.4,-,N/A,,Clear,100,2012-12-04 06:53:00
2:53 AM,66.0,60.1,81,30.22,10.0,ESE,9.2,-,N/A,,Clear,110,2012-12-04 07:53:00
3:53 AM,66.0,61.0,84,30.22,10.0,ESE,8.1,-,N/A,,Clear,110,2012-12-04 08:53:00
4:53 AM,66.0,61.0,84,30.22,10.0,ESE,10.4,-,N/A,,Clear,110,2012-12-04 09:53:00
5:53 AM,64.9,59.0,81,30.22,10.0,ESE,11.5,-,N/A,,Clear,110,2012-12-04 10:53:00
6:53 AM,66.0,60.1,81,30.23,10.0,East,10.4,-,N/A,,Clear,100,2012-12-04 11:53:00
7:53 AM,66.0,60.1,81,30.25,10.0,East,10.4,-,N/A,,Clear,100,2012-12-04 12:53:00
8:53 AM,68.0,60.1,76,30.27,10.0,East,8.1,-,N/A,,Clear,100,2012-12-04 13:53:00
9:53 AM,69.1,60.1,73,30.28,10.0,East,8.1,-,N/A,,Clear,90,2012-12-04 14:53:00
10:53 AM,70.0,61.0,73,30.27,10.0,East,5.8,-,N/A,,Clear,80,2012-12-04 15:53:00
11:53 AM,73.0,61.0,66,30.25,10.0,ENE,3.5,-,N/A,,Clear,70,2012-12-04 16:53:00
12:53 PM,75.0,57.0,53,30.21,10.0,NE,5.8,-,N/A,,Clear,40,2012-12-04 17:53:00
1:53 PM,78.1,57.0,48,30.19,10.0,NE,4.6,-,N/A,,Clear,40,2012-12-04 18:53:00
2:53 PM,77.0,53.1,43,30.17,10.0,NE,6.9,-,N/A,,Clear,50,2012-12-04 19:53:00
3:53 PM,77.0,55.9,48,30.17,10.0,NE,5.8,-,N/A,,Scattered Clouds,50,2012-12-04 20:53:00
4:53 PM,73.0,63.0,71,30.18,10.0,East,9.2,-,N/A,,Mostly Cloudy,100,2012-12-04 21:53:00
5:53 PM,71.1,64.9,81,30.18,10.0,East,8.1,-,N/A,,Overcast,90,2012-12-04 22:53:00
6:53 PM,70.0,64.9,84,30.19,10.0,ESE,5.8,-,N/A,,Overcast,110,2012-12-04 23:53:00
7:53 PM,70.0,62.1,76,30.20,10.0,East,6.9,-,N/A,,Scattered Clouds,100,2012-12-05 00:53:00
8:53 PM,70.0,62.1,76,30.20,10.0,East,8.1,-,N/A,,Overcast,100,2012-12-05 01:53:00
9:53 PM,69.1,60.1,73,30.20,10.0,East,9.2,-,N/A,,Mostly Cloudy,100,2012-12-05 02:53:00
10:53 PM,68.0,60.1,76,30.19,10.0,East,8.1,-,N/A,,Mostly Cloudy,100,2012-12-05 03:53:00
11:53 PM,66.9,61.0,81,30.19,10.0,ENE,6.9,-,N/A,,Scattered Clouds,70,2012-12-05 04:53:00